www.pogodaiklimat.ru

Погода и климат >> Архив погоды >> Россия >> Архангельская область >> Кепино


ПОГОДА в Кепино

  • Прогноз погоды в Кепино
  • Монитор погоды в Кепино
  • Климат города

АРХИВ ПОГОДЫ в Кепино

Время (UTC), дата Ветер
(напр.,м/с)
 
Видим.   Явления Облачность Т
(С)
Тd
(С)
f
(%)
Тe
(С)
Тes
(С)
Комфортность P
(гПа)
Po
(гПа)
Тmin
(С)
Tmax
(С)
R
(мм)
R24
(мм)
S
(см)
03 14.06 С 2 20 км 6/6 600 м
[Sc diur, vesp]
+4.4 -0.5 70 +2 +3 1011.5 1002.9 -1.7
06 14.06 С 2 20 км 9/9 600 м
[Sc diur, vesp]
+6.4 -1.0 59 +5 +5 1012.9 1004.2
09 14.06 С 2 10 км в посл. час ливневой дождь 9/9 600 м
[Sc]
+7.2 -1.0 56 +6 +7 1014.4 1005.8
12 14.06 С 1
{10}
10 км {ливн. осадки} 10/10 600 м
[Sc]
+8.4 -2.0 48 +8 +8 1015.4 1006.8
15 14.06 С 1 10 км 9/5 600 м
[Sc diur, vesp Ac As]
+9.0 -1.7 47 +9 +10 1015.8 1007.2 +9.2 0.0
18 14.06 СЗ 2 20 км 8/0
[Ac cast Ci sp]
+6.7 -1.9 54 +5 +5 1016.6 1008.0
21 14.06 штиль 0 20 км 9/0
[Ac As]
-0.3 -1.7 90 -2 -2 1017.4 1008.5
00 15.06 штиль 0 20 км ясно -2.9 -3.4 96 -4 -4 1017.8 1008.8
03 15.06 З 1 20 км ясно +7.2 -0.9 56 +7 +10 1018.0 1009.4 -3.1
06 15.06 З 1 20 км 3/0
[Ci]
+11.4 -4.3 33 +12 +21 1018.1 1009.6
09 15.06 СЗ 2 20 км 4/0
[Ci]
+14.3 -4.3 27 +14 +26 опасность
простуды
1017.7 1009.3
12 15.06 Ю 2 20 км 8/0
[Ci fib]
+16.5 -4.8 23 +17 +25 1017.3 1009.0
15 15.06 Ю 1 20 км 1/0
[Ci fib]
+17.4 -3.2 24 +19 +22 1016.9 1008.5 +18.1
18 15.06 штиль 0 20 км 1/0
[Ci fib]
+15.7 -0.8 32 +16 +16 1016.8 1008.4
21 15.06 штиль 0 20 км 1/0
[Ci fib]
+4.5 +1.1 79 +4 +4 1017.6 1008.9
00 16.06 штиль 0 20 км 6/0
[Ac trans Ci fib]
+2.6 +0.3 85 +2 +2 1018.3 1009.5
03 16.06 Ю 2 20 км 10/3 600 м
[Cb calv Ac As Ci sp]
+13.5 +1.5 44 +13 +14 1017.7 1009.2 +2.1
06 16.06 ЮВ 2 20 км 10/4 600 м
[Cb calv Ac As Ci sp]
+17.4 +3.5 40 +18 +20 1017.3 1008.9
09 16.06 Ю 3 20 км 9/0
[Ac As Ci]
+21.1 +4.4 33 +21 +28 комфорт 1016.7 1008.5
12 16.06 ЮЗ 2 20 км 9/8 600 м
[Cu med, cong Ac trans Ci sp]
+24.7 +5.9 30 +25 +26 комфорт 1015.8 1007.7
15 16.06 ЮЗ 2
{10}
20 км 8/6 600 м
[Cu med, cong Ac trans]
+24.2 +6.3 32 +24 +25 комфорт 1015.0 1006.9 +26.0
18 16.06 СЗ 1 20 км 6/4 600 м
[Cu med, cong Ac trans Ci fib]
+20.2 +10.3 53 +23 +23 комфорт 1015.6 1007.4
21 16.06 штиль 0 20 км 4/0
[Ac cast]
+12.6 +10.2 85 +12 +12 1016.9 1008.4
00 17.06 штиль 0 20 км 3/0
[Ac cast]
+8.6 +7.8 95 +8 +8 1017.5 1008.9
03 17.06 штиль 0 20 км 9/0
[Ci]
+17.8 +10.9 64 +18 +21 1017.5 1009.2 +8.5
06 17.06 СЗ 1 20 км 9/8 600 м
[Cu med, cong Ci fib]
+23.0 +6.9 35 +24 +25 комфорт 1017.1 1008.9
09 17.06 СЗ 2 20 км 9/5 600 м
[Cu med, cong Ac cast Ci fib]
+24.5 +5.5 29 +24 +28 комфорт 1017.1 1009.0
12 17.06 СЗ 2 20 км 9/8 600 м
[Cu med, cong Ci fib]
+24.4 +5.6 30 +24 +26 комфорт 1016.9 1008.8
15 17.06 СВ 1 20 км 9/5 600 м
[Cu med, cong Ac trans Ci fib]
+25.5 +4.0 25 +25 +26 комфорт 1016.7 1008.6 +26.3
18 17.06 СЗ 2 20 км 8/3 600 м
[Cu med, cong Ci fib]
+21.9 +3.1 29 +22 +22 комфорт 1017.3 1009.1
21 17.06 штиль 0 20 км 8/0
[Ac trans]
+13.0 +5.6 61 +13 +13 1018.1 1009.6
00 18.06 штиль 0 20 км 9/3 600 м
[Cu med, cong Ci sp]
+10.4 +6.4 76 +10 +10 1018.5 1010.0
03 18.06 штиль 0 20 км 8/8 600 м
[Cu med, cong]
+18.5 +7.6 49 +19 +19 1018.0 1009.7 +9.8
06 18.06 В 2 20 км 1/0
[Ac trans]
+23.0 +5.4 32 +23 +31 комфорт 1017.3 1009.2
09 18.06 ЮВ 1 20 км 1/1 600 м
[Cu hum]
+25.9 +3.9 24 +25 +38 комфорт 1016.1 1008.0
12 18.06 ЮВ 1 20 км 9/8 600 м
[Cu med, cong Ci fib]
+24.9 +4.4 27 +24 +26 комфорт 1014.5 1006.4
15 18.06 ЮВ 2
{10}
20 км 9/0 600 м
[Ac cast Ci sp]
+24.6 +4.8 28 +24 +27 комфорт 1012.7 1004.6 +27.1
18 18.06 В 2 20 км 10/0
[Ac lent Ci fib]
+21.5 +4.2 32 +22 +22 комфорт 1011.5 1003.4
21 18.06 ЮВ 2 20 км 10/0
[Ac und]
+18.8 +3.3 36 +20 +20 1010.7 1002.5
00 19.06 В 3 20 км 10/0
[Ac und]
+17.6 +3.1 38 +18 +18 1009.1 1000.8
03 19.06 ЮВ 2 20 км {ливн. осадки} 10/8 600 м
[Sc diur, vesp Ac cuf]
+16.7 +3.9 42 +17 +17 1007.6 999.3 +16.6 0.0
06 19.06 ЮВ 2 20 км {ливн. осадки} 10/8 600 м
[Sc diur, vesp Ac As Ci sp]
+18.1 +6.2 46 +19 +20 1005.4 997.2
09 19.06 ЮВ 3 20 км гроза без осадков 10/4 600 м
[Cb calv Ac trans Ci fib]
+23.2 +11.5 48 +26 +29 жарко 1002.9 994.9
12 19.06 З 2 20 км гроза без осадков 10/6 600 м
[Cb calv Ac As Ci ing]
+20.4 +13.0 62 +23 +25 комфорт 1001.5 993.5
15 19.06 штиль 0 10 км слабый ливневой дождь {гроза} 10/8 600 м
[Cb cap Ac cast]
+15.2 +14.4 95 +15 +15 999.7 991.5 +24.4 6
18 19.06 В 1 10 км {гроза, ливн. осадки} 10/3 600 м
[Sc diur, vesp Ac inh Ci fib]
+15.1 +14.3 95 +16 +16 997.5 989.3
21 19.06 ЮВ 1 4000 м дымка 10/9 600 м
[Sc Ac As]
+14.1 +13.6 97 +14 +14 994.5 986.3
00 20.06 штиль 0 4000 м дымка 10/3 600 м
[Cb cap Ac As Ci sp]
+12.4 +12.0 97 +12 +12 991.9 983.7
03 20.06 ЮВ 1 4000 м дымка 10/3 600 м
[Sc Ac As Ci sp]
+13.7 +12.7 94 +14 +15 990.0 981.8 +11.9 2
06 20.06 ЮВ 1 4000 м дымка 10/5 600 м
[Sc Ac As Ci sp]
+15.7 +12.4 81 +16 +19 988.4 980.3
09 20.06 Ю 1 10 км 9/3 600 м
[Cu med, cong Ac As Ci sp]
+17.8 +9.2 57 +19 +25 987.8 979.8
12 20.06 штиль 0 10 км 10/6 600 м
[Sc diur, vesp Ac As]
+19.0 +9.4 54 +20 +21 987.6 979.6
15 20.06 З 3 10 км 10/0
[Ac und]
+16.5 +10.7 69 +16 +17 988.3 980.2 +19.0
18 20.06 СЗ 2
{10}
10 км слабый ливневой дождь 10/6 600 м
[Cb cap Ac As]
+14.4 +9.4 72 +14 +14 988.8 980.6
21 20.06 СЗ 1 10 км {ливн. осадки} 10/8 600 м
[Sc Ac As]
+12.4 +11.1 92 +12 +12 989.5 981.3

 

Местоположение метеостанции Кепино (Архангельская область, Россия): широта 65.38 долгота 41.83 высота над уровнем моря 69 м.

В архиве по умолчанию представлена погода в Кепино за последнюю неделю. Архивные данные за месяц целиком и за предыдущие месяцы, начиная с января 2011 года, Вы можете получить, выбрав интересующий диапазон дат из раскрывающегося списка и нажав кнопку "Ввод!".


*Определитесь, кто Вы:
робот инопланетянин человек

Внимание! Время в таблицах - всемирное. Для получения местного времени необходимо прибавить поправку, которая в Кепино равна 3 ч.

Смотрите также архив погоды в соседних городах и на ближайших метеорологических станциях:

Погода на Мудьюге Острове (Архангельская область, Россия) (93 км)
Погода в Зимнегорском Маяке (Архангельская область, Россия) (98 км)
Погода в Пинеге (Архангельская область, Россия) (104 км)
Погода в Архангельске (Архангельская область, Россия) (111 км)
Погода в Мезене (Архангельская область, Россия) (122 км)
Погода в Абрамовском маяке (Архангельская область, Россия) (129 км)
Погода в Холмогорах (Архангельская область, Россия) (129 км)
Погода в Северодвинске (Архангельская область, Россия) (131 км)
Погода на Сосновец Острове (Мурманская область, Россия) (133 км)
Погода в Пялице (Мурманская область, Россия) (138 км)

Пояснения к столбцам:

Ветер - указаны скорость ветра в м/с - средняя за 10 мин, порывы в срок и между сроками (в фигурных скобках) и направление, откуда дует ветер: С - северный, СВ - северо-восточный, В - восточный, ЮВ - юго-восточный, Ю - южный, ЮЗ - юго-западный, З - западный, СЗ - северо-западный.
Видимость - горизонтальная дальность видимости в метрах или километрах. При видимости от 1 до 10 км при отсутствии осадков обычно наблюдается дымка, при ухудшении видимости до 1 км и менее - туман. В сухую погоду видимость может ухудшаться дымом, пылью или мглою.
Явления - указаны атмосферные явления, наблюдавшиеся в срок или в последний час перед сроком; фигурными скобками обозначены явления, наблюдавшиеся между сроками (за 1-3 часа до срока); квадратными скобками обозначены град или гололедные отложения с указанием их диаметра в мм.
Облачность - указаны через наклонную черту общая и нижняя облачность в баллах и высота нижней границы облаков в метрах; квадратными скобками обозначены формы облаков: Ci - перистые, Cs - перисто-слоистые, Cc - перисто-кучевые, Ac - высококучевые, As - высокослоистые, Sc - слоисто-кучевые, Ns - слоисто-дождевые, Cu - кучевые, Cb - кучево-дождевые. Подробнее классификацию облаков см. в Атласе облаков (PDF).
T - Температура воздуха - температура, измеренная на высоте 2 м над землей.
Td - Температура точки росы - температура, при понижении до которой содержащийся в воздухе водяной пар достигнет насыщения.
f - Относительная влажность воздуха - влажноcть воздуха, измеренная на высоте 2 м над землей.
Te - Эффективная температура - температура, которую ощущает одетый по сезону человек в тени. Характеристика душности погоды. При расчете учитывается влияние влажности воздуха и скорости ветра на теплоощущения человека.
Tes - Эффективная температура на солнце - температура, которую ощущает человек, с поправкой на солнечный нагрев. Характеристика знойности погоды. Зависит от высоты солнца над горизонтом, облачности и скорости ветра. Ночью, в пасмурную погоду, а также при ветре 12 м/с и более поправка равна нулю.
P - Атмосферное давление - приведенное к уровню моря атмосферное давление.
Po - Атмосферное давление - измеренное на уровне метеостанции атмосферное давление.
Tmin - Минимальная температура - минимум температуры воздуха на высоте 2 м над землей.
Tmax - Максимальная температура - максимум температуры воздуха на высоте 2 м над землей.
R - Количество осадков - Количество выпавших осадков за период времени, мм. При наведении курсора мыши на число - период времени, за который выпало указанное количество осадков.
R24 - Количество осадков - Количество выпавших осадков за 24 часа, мм.
S - Снежный покров - Высота снежного покрова, см. При наведении курсора мыши на число - состояние снежного покрова и степень покрытия местности в баллах.